Volver al catálogo

COSMOS 511

ActivoMilitarLEO
NORAD 6124·PAYLOAD·🇷🇺 Russia

Lanzado Jul 20, 1972 desde Plesetsk Cosmodrome

Loading…

Próximos Pases (próximas 24 horas)

TLE

ActualizadoSource: Space-Track

Época: Sep 14, 2026, 10:56 UTC

1 06124U 72057H   26257.45613913  .00000007  00000-0  17191-3 0  9997
2 06124  74.0270 137.2104 0031265  59.5822 113.7112 12.36883307445157

Sigue COSMOS 511 en tiempo real con AllMySat

Download on the App Store